[[{"header":{"parameterUnit":"m.s-1","parameterCategory":1,"la1":30.2991,"la2":30.254,"lo1":-89.0895,"lo2":-89.0444,"dy":0.0017,"dx":0.0017,"nx":28,"ny":28,"refTime":"2024-07-25T09:00:00:Z","depth":0,"parameterNumber":2,"parameterNumberName":"U-component_of_WINDS"},"data":[0,0,0,0,0,0,0,0,0,0,0,0,0,0,0,0,0,0,0,0,0,0,0,0,0,0,0,0,0,0,0,0,0,0,0,0,0,0,0,0,0,0,0,0,0,0,0,0,0,0,0,0,0,0,0,0,0,0,0.4425,0.4428,0,0.47,0.4703,0.4707,0.4898,0.49,0.4901,0.4903,0.5184,0.519,0.5196,0,0,0,0,0,0,0,0,0,0,0,0,0,0.4063,0.4069,0.4425,0.4428,0.4432,0.47,0.4704,0.4707,0.4898,0.49,0.4902,0.4903,0.5182,0.5189,0.5196,0,0,0,0,0,0,0,0,0,0,0,0,0,0.4267,0.4071,0.4424,0.4559,0.4574,0.4699,0.4704,0.4708,0.4898,0.49,0.4902,0.4904,0.5179,0.5188,0.5197,0.521,0,0,0.5225,0.5229,0,0,0,0,0,0,0,0,0.4255,0.428,0.4536,0.455,0.4567,0.4767,0.4679,0.4876,0.4897,0.4775,0.4903,0.4905,0.5043,0.5064,0.5111,0.5223,0.5235,0.5226,0.5232,0.5236,0.5238,0,0,0,0,0,0,0,0.4241,0.427,0.4534,0.4539,0.4558,0.4606,0.4637,0.4718,0.4893,0.4786,0.48,0.483,0.5052,0.5101,0.5119,0.5239,0.5226,0.5234,0.524,0.5243,0.5375,0.5373,0,0,0,0,0,0,0.4206,0.4257,0.4525,0.4542,0.4414,0.461,0.4646,0.4701,0.4893,0.4924,0.4828,0.4838,0.5085,0.5108,0.5129,0.5156,0.5236,0.5244,0.5249,0.5377,0.5375,0.5372,0,0,0,0,0,0,0.4197,0.4228,0.4514,0.4404,0.4444,0.4614,0.4675,0.4705,0.4754,0.4925,0.4957,0.4846,0.5087,0.5116,0.5188,0.5168,0.5248,0.5257,0.5379,0.5376,0.5374,0.5209,0,0,0,0,0,0,0.4186,0.4224,0.423,0.4402,0.4449,0.4568,0.4674,0.4709,0.477,0.4785,0.495,0.498,0.5091,0.5173,0.5197,0.5182,0.5264,0.5382,0.5378,0.5374,0.5217,0.5201,0.5187,0,0,0,0,0,0.4173,0.4173,0.423,0.4261,0.4461,0.4566,0.4593,0.4721,0.4767,0.4775,0.4885,0.4974,0.5167,0.5179,0.5208,0.5195,0.5384,0.5379,0.5375,0.5223,0.5204,0.5187,0,0,0,0,0,0,0.3994,0.4198,0.4263,0.4319,0.4424,0.4599,0.4612,0.4697,0.479,0.4801,0.4957,0.4992,0.5047,0.5129,0.5139,0.5217,0.5286,0.5287,0.5161,0.5144,0.5129,0.5108,0.5271,0,0,0,0,0,0.3961,0.4031,0.4205,0.4238,0.4287,0.444,0.4491,0.4581,0.4696,0.4741,0.4856,0.4964,0.5049,0.5101,0.5189,0.523,0.5268,0.5235,0.522,0.5207,0.5206,0.5233,0.522,0.5358,0.5358,0.5358,0,0,0.3894,0.4014,0.4049,0.4205,0.4297,0.4364,0.4476,0.4543,0.4595,0.4751,0.4826,0.4914,0.5045,0.51,0.5131,0.517,0.5176,0.5201,0.5189,0.5196,0.5227,0.5213,0.5202,0.5355,0.5355,0.5356,0,0,0.3807,0.3905,0.3942,0.4032,0.417,0.4272,0.428,0.4442,0.4506,0.4584,0.4702,0.4766,0.4909,0.4997,0.506,0.5005,0.5091,0.503,0.495,0.4975,0.4964,0.4955,0.4934,0.4925,0.5028,0.5027,0.5027,0,0.3705,0.3813,0.3951,0.4011,0.4076,0.4221,0.4259,0.434,0.4498,0.454,0.4581,0.4764,0.4862,0.494,0.4926,0.4973,0.4987,0.5011,0.4954,0.4947,0.4941,0.4923,0.4914,0.5019,0.502,0.5021,0.5022,0,0.3681,0.3754,0.3768,0.3917,0.3984,0.4033,0.4178,0.4229,0.4312,0.4409,0.4486,0.4609,0.4723,0.4749,0.4832,0.4839,0.4859,0.4925,0.4998,0.4917,0.4902,0.4896,0.5007,0.501,0.5012,0.5015,0,0,0.3488,0.3713,0.3716,0.3785,0.3948,0.4006,0.4062,0.4174,0.4214,0.4319,0.4368,0.4486,0.4548,0.462,0.4714,0.4735,0.4682,0.48,0.4806,0.4773,0.4697,0.4644,0.4634,0.4741,0.474,0.474,0.4685,0,0.3424,0.3531,0.3657,0.3721,0.3789,0.3927,0.3976,0.408,0.4172,0.4243,0.4345,0.4426,0.4503,0.4547,0.4574,0.4683,0.4669,0.4689,0.4788,0.479,0.4749,0.4627,0.4572,0.4515,0.4681,0.468,0.4679,0,0.3364,0.3461,0.3531,0.3687,0.3721,0.3761,0.3874,0.3941,0.4062,0.4127,0.4206,0.4307,0.4372,0.4437,0.4528,0.4538,0.4586,0.4646,0.4647,0.466,0.4728,0.4635,0.45,0.449,0.4672,0.4673,0.4673,0,0.3214,0.3363,0.3424,0.3479,0.3663,0.3688,0.3766,0.389,0.3949,0.4047,0.4087,0.4191,0.4248,0.4326,0.4453,0.4488,0.453,0.4605,0.4585,0.4581,0.4586,0.4584,0.4455,0.4619,0.4619,0.4619,0.4619,0,0.3129,0.3166,0.3359,0.3396,0.3442,0.3586,0.3627,0.3717,0.3826,0.3883,0.4009,0.406,0.4224,0.4294,0.4393,0.4453,0.4478,0.4532,0.4558,0.452,0.4513,0.4553,0.4559,0.4617,0.4618,0.4618,0.4618,0,0.2969,0.31,0.3175,0.3343,0.3386,0.3412,0.3556,0.3597,0.3696,0.3766,0.3791,0.3947,0.4036,0.417,0.4299,0.4366,0.4409,0.4452,0.4367,0.4383,0.4354,0.4354,0.4245,0.4238,0.4406,0.4404,0.4403,0,0.2905,0.2937,0.3107,0.3155,0.3228,0.3302,0.3364,0.3507,0.3565,0.3705,0.3728,0.3827,0.3914,0.4049,0.4174,0.4273,0.4318,0.4274,0.4334,0.4295,0.4316,0.4312,0.4315,0.4258,0.4256,0.4254,0.4252,0,0.2777,0.284,0.2923,0.3029,0.3098,0.3188,0.3284,0.3315,0.3479,0.3538,0.363,0.3697,0.3829,0.3925,0.4041,0.4121,0.4213,0.4232,0.4233,0.4193,0.4142,0.4168,0.4327,0.4234,0.4235,0.4237,0.4238,0.4239,0.2663,0.2697,0.2822,0.291,0.2998,0.3084,0.3131,0.3236,0.3316,0.3434,0.3514,0.3601,0.3721,0.3887,0.3962,0.4032,0.4072,0.4072,0.4073,0.407,0.4055,0.4132,0.4054,0.4055,0.4056,0.4056,0.4057,0,0.254,0.2628,0.2707,0.2838,0.2906,0.2988,0.3098,0.315,0.3225,0.333,0.3412,0.3518,0.3611,0.3743,0.3847,0.3877,0.3922,0.3899,0.3898,0.3914,0.4015,0.4004,0.3861,0.3861,0.3861,0.3861,0.3861,0.3861,0.2484,0.2546,0.2624,0.273,0.2818,0.2904,0.296,0.3041,0.3125,0.3236,0.3315,0.34,0.3516,0.3629,0.3718,0.3754,0.3786,0.375,0.3798,0.389,0.3908,0.3924,0.3915,0.3756,0.3755,0.3692,0.3692,0.3691]},{"header":{"parameterUnit":"m.s-1","parameterCategory":1,"la1":30.2991,"la2":30.254,"lo1":-89.0895,"lo2":-89.0444,"dy":0.0017,"dx":0.0017,"nx":28,"ny":28,"refTime":"2024-07-25T09:00:00:Z","depth":0,"parameterNumber":3,"parameterNumberName":"V-component_of_WINDS"},"data":[0,0,0,0,0,0,0,0,0,0,0,0,0,0,0,0,0,0,0,0,0,0,0,0,0,0,0,0,0,0,0,0,0,0,0,0,0,0,0,0,0,0,0,0,0,0,0,0,0,0,0,0,0,0,0,0,0,0,1.787,1.7871,0,1.7963,1.7964,1.7965,1.8055,1.8056,1.8057,1.8058,1.8147,1.8148,1.815,0,0,0,0,0,0,0,0,0,0,0,0,0,1.7766,1.7767,1.787,1.7871,1.7872,1.7963,1.7964,1.7965,1.8054,1.8056,1.8057,1.8059,1.8147,1.8148,1.815,0,0,0,0,0,0,0,0,0,0,0,0,0,1.783,1.7768,1.787,1.7928,1.7934,1.7962,1.7964,1.7965,1.8054,1.8056,1.8058,1.8059,1.8146,1.8148,1.815,1.8126,0,0,1.8156,1.8157,0,0,0,0,0,0,0,0,1.7826,1.7834,1.7918,1.7924,1.7931,1.7999,1.796,1.8019,1.8054,1.8008,1.8058,1.806,1.8096,1.8102,1.8116,1.8131,1.8134,1.8156,1.8157,1.8158,1.8158,0,0,0,0,0,0,0,1.7822,1.783,1.7906,1.7919,1.7927,1.7948,1.7959,1.7972,1.8041,1.8012,1.8019,1.8029,1.81,1.8113,1.8118,1.8136,1.8156,1.8158,1.8159,1.816,1.8137,1.8135,0,0,0,0,0,0,1.7809,1.7826,1.7904,1.7909,1.7882,1.7948,1.7961,1.7975,1.8041,1.8053,1.8028,1.8033,1.8109,1.8116,1.8122,1.8099,1.8158,1.816,1.8161,1.8139,1.8137,1.8135,0,0,0,0,0,0,1.7806,1.7815,1.79,1.7869,1.7882,1.7948,1.7964,1.7976,1.799,1.8053,1.8065,1.8029,1.8111,1.8119,1.8125,1.8103,1.8161,1.8162,1.8141,1.8138,1.8136,1.8053,0,0,0,0,0,0,1.7803,1.7814,1.7806,1.7869,1.7883,1.7903,1.7963,1.7977,1.7994,1.8002,1.8057,1.8068,1.8113,1.8122,1.8127,1.8107,1.8164,1.8143,1.814,1.8137,1.8058,1.8048,1.8039,0,0,0,0,0,1.7799,1.7778,1.7805,1.7814,1.7876,1.7901,1.7909,1.7963,1.7992,1.7984,1.8025,1.8066,1.8105,1.8122,1.8128,1.8108,1.8145,1.8141,1.8137,1.8062,1.805,1.8039,0,0,0,0,0,0,1.7708,1.7787,1.7818,1.7817,1.7852,1.7916,1.7909,1.7948,1.7974,1.798,1.8044,1.8056,1.8055,1.8083,1.81,1.809,1.8131,1.8128,1.8071,1.806,1.8051,1.8044,1.8165,0,0,0,0,0,1.7689,1.7705,1.7772,1.7764,1.778,1.7841,1.7854,1.7893,1.7931,1.7946,1.7987,1.802,1.8041,1.8052,1.8074,1.8063,1.8076,1.8052,1.8043,1.8035,1.8031,1.8028,1.8018,1.8122,1.8122,1.8122,0,0,1.7647,1.7692,1.7698,1.7747,1.7779,1.7793,1.7853,1.7865,1.7875,1.7947,1.7956,1.7987,1.8029,1.8027,1.8027,1.8049,1.8006,1.803,1.8023,1.8024,1.8022,1.8013,1.8004,1.8119,1.812,1.812,0,0,1.7579,1.7615,1.7613,1.7644,1.7692,1.7733,1.7733,1.7792,1.7816,1.7826,1.7881,1.7893,1.7926,1.7954,1.7973,1.7917,1.7956,1.7922,1.7872,1.7868,1.786,1.7853,1.7832,1.7824,1.7918,1.7918,1.7918,0,1.7521,1.7546,1.7606,1.7615,1.7635,1.7703,1.7701,1.7728,1.7779,1.7791,1.7816,1.7859,1.7892,1.7897,1.7884,1.7897,1.7897,1.7915,1.7856,1.785,1.7844,1.7826,1.7818,1.7914,1.7914,1.7915,1.7915,0,1.7472,1.7488,1.748,1.7531,1.755,1.7553,1.7613,1.7625,1.7662,1.77,1.771,1.7752,1.7784,1.7788,1.7824,1.7798,1.7811,1.7845,1.7887,1.7829,1.7812,1.7806,1.7907,1.7909,1.791,1.7911,0,0,1.7347,1.7433,1.7429,1.7454,1.7512,1.7525,1.7531,1.7565,1.7574,1.7607,1.7613,1.7641,1.7673,1.7694,1.7734,1.773,1.7683,1.7765,1.7767,1.7748,1.7657,1.763,1.7621,1.771,1.7709,1.7708,1.7653,0,1.7288,1.7305,1.7361,1.736,1.7376,1.7442,1.7447,1.7483,1.7519,1.7536,1.7575,1.7594,1.7636,1.7649,1.7648,1.7688,1.7665,1.7693,1.7714,1.7714,1.7701,1.7612,1.7584,1.753,1.7647,1.7646,1.7645,0,1.7221,1.7253,1.7255,1.7315,1.7323,1.7327,1.7363,1.7379,1.7421,1.7447,1.7471,1.7516,1.7525,1.7566,1.7578,1.7596,1.7609,1.763,1.7629,1.7632,1.7675,1.7612,1.7515,1.7506,1.7636,1.7637,1.7637,0,1.713,1.7173,1.718,1.7199,1.7268,1.727,1.7298,1.7343,1.7359,1.739,1.7401,1.7432,1.7448,1.747,1.7521,1.7546,1.7528,1.7573,1.7549,1.7547,1.7541,1.754,1.7443,1.755,1.755,1.755,1.755,0,1.7058,1.7056,1.714,1.7144,1.7144,1.7208,1.7205,1.724,1.7279,1.729,1.7348,1.7357,1.7425,1.7441,1.7481,1.7485,1.7492,1.7513,1.7523,1.7507,1.7504,1.7515,1.7519,1.7548,1.7549,1.7549,1.7549,0,1.6955,1.7011,1.7023,1.7089,1.7106,1.7102,1.7158,1.7164,1.7205,1.7218,1.7224,1.7287,1.7309,1.7363,1.7399,1.7426,1.7419,1.7439,1.7405,1.7412,1.7385,1.7386,1.729,1.728,1.7394,1.7392,1.7392,0,1.6904,1.6905,1.6972,1.6985,1.7012,1.7031,1.7049,1.7112,1.7128,1.7177,1.7176,1.7204,1.7229,1.7261,1.7309,1.7336,1.7357,1.7321,1.7361,1.7345,1.7355,1.7354,1.7354,1.7312,1.731,1.7309,1.7308,0,1.6809,1.6838,1.6863,1.6898,1.6918,1.6948,1.6981,1.6988,1.7058,1.7073,1.7098,1.7118,1.7156,1.7182,1.7217,1.7245,1.7287,1.7296,1.7291,1.7274,1.7254,1.7264,1.738,1.7297,1.7298,1.7299,1.7299,1.73,1.6731,1.6735,1.6783,1.6809,1.6841,1.6871,1.688,1.6922,1.6945,1.6982,1.7017,1.7038,1.708,1.7133,1.7158,1.7175,1.7196,1.719,1.7189,1.7186,1.7179,1.7253,1.7181,1.7182,1.7182,1.7182,1.7183,0,1.6638,1.6673,1.6696,1.6742,1.6762,1.6803,1.6842,1.6856,1.6874,1.6912,1.6936,1.6964,1.699,1.7041,1.7071,1.7074,1.7094,1.7079,1.7079,1.7085,1.7158,1.7158,1.7063,1.7063,1.7063,1.7063,1.7063,1.7063,1.6592,1.6601,1.6635,1.666,1.6695,1.6717,1.6736,1.6763,1.6794,1.6823,1.6846,1.688,1.6922,1.6956,1.6981,1.6995,1.7003,1.6982,1.7002,1.7068,1.708,1.709,1.7091,1.6983,1.6983,1.6928,1.6927,1.6927]}]]